TIMESTAMP,CO2_1_1_1,H2O_1_1_1,TAU_1_1_1,TAU_SSITC_TEST_1_1_1,H_1_1_1,H_SSITC_TEST_1_1_1,LE_1_1_1,LE_SSITC_TEST_1_1_1,FC_1_1_1,FC_SSITC_TEST_1_1_1,WD_0_0_1,WS_0_0_1,WS_MAX_0_0_1,U_SIGMA_0_0_1,V_SIGMA_0_0_1,W_SIGMA_0_0_1,USTAR_0_0_1,MO_LENGTH_0_0_1,ZL_0_0_1,FETCH_MAX_0_0_1,FETCH_70_0_0_1,FETCH_80_0_0_1,FETCH_90_0_0_1,PA_0_0_1,RH_0_0_1,TA_0_0_1,VPD_0_0_1,T_SONIC_0_0_1,T_SONIC_SIGMA_0_0_1
[yyyymmddHHMMSS],[mmolCO2 mol-1],[mmolH2O mol-1],[kg m-1 s-2],[#],[W m-2],[#],[W m-2],[#],[umolCO2 m-2 s-1],[#],[Decimal degrees],[m s-1],[m s-1],[m s-1],[m s-1],[m s-1],[m s-1],[m],[#],[m],[m],[m],[m],[kPa],[%],[deg C],[hPa],[deg C],[deg C]
20190813003000,388.22267030714903,14.203581341045231,9.77769500851261852E-002,0,-7.7751428922502646,0,21.876682711783840,0,0.73916554281325253,0,358.72473548167937,2.1156496288109761,5.3042469243888979,0.71463877157101574,0.56834652394038887,0.38858706453142233,0.29689039265834516,280.37964345264407,6.77652620070083173E-002,100.95809414068964,184.58359502183183,220.89941993315711,276.53986087756340,93.652830411749491,59.252758620689654,19.396896551724126,9.1500799079854964,20.183666908076020,0.12511398657900627
20190813010000,389.20828191590988,14.204047751933208,8.92019600509250526E-002,0,-9.7332594419081957,1,15.842304427817167,0,1.5919650501943761,1,357.04191589752850,2.3061229621504458,5.6848625314235601,0.76879234614913006,0.61708489124312904,0.39531500157035965,0.28337043615577312,194.75665065635445,9.75576440443374077E-002,95.936505318962659,175.40252910210347,209.91202890419709,262.78495112055538,93.660178064670134,60.736666666666665,19.001666666666665,8.6024032271616626,19.782890881856247,0.14861747445980947
20190813013000,391.58656981410604,14.355457562019739,0.10160509610830794,0,-6.6752005593642147,0,17.252316200546510,0,1.5518274868632072,0,359.81384401451351,1.9199032456011351,4.7720690102085861,0.67559192735770057,0.57710810273201707,0.36487609508007524,0.30217473450898991,344.40949285343487,5.51668882369788297E-002,107.68249015392580,196.87793557013811,235.61260555108993,294.95902334109587,93.681604161892366,63.123333333333335,18.558333333333337,7.8586793840721842,19.364471109178282,0.14883533130574375
20190813020000,394.26193887305016,14.082814989328893,8.37965036440029148E-002,0,-15.607751550354067,0,29.820106567492303,0,2.4936820776577151,0,353.44517075160502,1.8413466993941980,5.4210301594937453,0.80180497464019673,0.50649845965493778,0.36259487853369571,0.27411841978110496,109.98833633247648,0.17274558951929370,100.10785201996252,183.02908125432651,219.03906398180936,274.21091598434401,93.721533958589433,63.857999999999997,18.074999999999989,7.4720919969753030,18.824248936772733,0.26632264736076011
20190813023000,398.66971704589054,14.645119323020079,1.69907284272936381E-002,1,12.709217289977962,2,-9.5449121482499919,2,-1.4933399294936653,2,352.15026281435695,1.1337546499736104,2.6556557906316938,0.35996285409402257,0.33113858255231776,0.17104484489566232,0.12317176441178229,-12.256982522740701,-1.5501368272940588,75.142937228010069,229.00000000000000,312.00000000000000,506.00000000000000,93.741372639363505,71.796000000000006,16.843000000000018,5.3944995279115506,17.553624681465408,0.41357590870380684
20190813030000,404.05312819056712,15.939481269943125,3.31801578692016777E-002,0,-25.287753276629825,0,71.824840125462288,1,7.1892096587971803,1,17.225868996509035,1.1718932291654087,3.1449284240388962,0.47874825505185592,0.28297335759031439,0.20197021712666932,0.17184650609803573,16.730468595915294,1.1356525904264754,65.277682609275061,511.00000000000000,895.00000000000000,2222.0000000000000,93.722926929751310,84.000000000000000,15.705666666666673,2.8462772568328250,16.554543795252584,0.27273925092362605
20190813033000,403.21524279531377,15.970094981340672,4.01675498426766128E-002,0,-5.8666039008570223,2,-10.497033298854509,2,-1.1394416549181665,2,38.210959137335777,2.0994925016946402,4.1418631913468449,0.66381891154784067,0.51103602748778176,0.26233762169094926,0.18912574071085661,96.112332926665047,0.19768534819040598,156.91121080703584,1390.0000000000000,2520.0000000000000,6653.0000000000000,93.697206329861103,83.785333333333327,15.771333333333359,2.8966141229453708,16.805006113688194,0.31751579066954799
20190813040000,401.20226221080230,15.566523706868619,5.63758669989544506E-002,0,-25.292927804726588,0,33.382934686215947,0,2.4029288666909365,0,50.957256878180601,2.2851946199005364,4.6631889595556792,0.48248782299097315,0.44669868460266016,0.31005502444713273,0.22418970949518446,37.128400049628780,0.51173764489186402,96.604291649132335,176.62345549317999,211.37316596536434,264.61412133630563,93.688783028211816,79.807000000000002,16.130666666666684,3.6910979825237225,17.130540663825172,0.17475621919049972
20190813043000,403.15618724609050,15.819873657216082,4.51869796269504242E-002,0,-23.187448237196666,0,19.284052343898608,0,1.0505164090961971,0,61.607165859650635,1.8405851152605852,4.0016348323766158,0.48717332305502481,0.46155542070968358,0.32371202032657559,0.20066522901289993,29.047417742340528,0.65410289370765440,85.409374019738934,156.15557563079770,186.87834133955167,233.94950756641771,93.709143465869644,81.658666666666662,16.027666666666676,3.3306582843765251,17.038114442840651,0.19499620756346481
20190813050000,405.06944678916074,15.933665392040643,9.91670950979323951E-002,0,-26.762419325421416,0,50.838701680321918,0,2.8204281526468216,0,68.155832884414323,1.7487295213011580,4.3317815014683960,0.76357519692724163,0.59106448870848882,0.40310754249679043,0.29717067490124077,81.742563551744453,0.23243704594574738,98.112178929680141,179.38035435800347,214.67246978476308,268.74445820855919,93.710537531684025,83.299999999999997,15.828666666666663,2.9942776646487594,16.856258601718537,0.17119326644417010
20190813053000,405.43608498593397,15.030750260084394,0.10217617963817131,0,-29.948238853048274,0,61.640898805621759,0,3.6569821309217061,0,74.918312149324791,2.1708479442014412,6.4486637703189000,0.73248477749193042,0.66633716107955798,0.42560505701721912,0.30155921148714715,76.322884538290182,0.24894237311573242,95.049000727938520,173.77988765463988,207.97014151999147,260.35393854826970,93.717007647569460,78.818333333333328,15.782333333333327,3.7865913077862818,16.709407073974660,0.15844170693745568
20190813060000,405.68266647605026,14.491276617585898,0.15094832922403706,0,-20.878745212666306,0,29.893363070001453,1,2.0842202205416145,1,76.608035543067800,2.1183792855388437,5.5445602590160501,0.75877414189830106,0.67336305196219692,0.45351313754412892,0.36653533512235525,196.54240488454261,9.66712502127030082E-002,105.60286008808308,193.07570854578674,231.06231090527348,289.26259440213909,93.700523493706598,75.909666666666666,15.795999999999992,4.3103334429619755,16.656112438625769,0.12165615445408849
20190813063000,407.02871748549205,14.623530516649870,0.24748824093456365,0,-23.256455742486676,0,43.001484477997010,0,3.1987580534450779,0,91.821664645872261,2.3209588775593555,5.7511114566854182,0.90374200962985951,0.72657031000334971,0.52395809592787135,0.46926777323255925,370.27192835559265,5.13136388285780273E-002,114.64476800814694,209.60719999228684,250.84628396490481,314.02978102115071,93.694475324218743,77.141999999999996,15.685333333333347,4.0609723514176723,16.555669857449004,0.11688144210596775
20190813070000,409.23148426519867,14.942019737303507,0.19884456665478450,0,-8.2540181150015712,0,10.536846701544658,1,1.7139941907162808,1,88.008027876556056,2.0189717194352044,5.5092780522533840,0.79362916780424886,0.74305629345666524,0.54577654555678934,0.42047468083149553,750.52823070403065,2.53155034317324862E-002,101.63303268766465,185.81759794631103,222.37620626501416,278.38862212320726,93.691112059895843,80.137000000000000,15.426666666666677,3.4708507679509784,16.336194117228160,8.37676264680358995E-002
20190813073000,412.08291501487099,15.527180723122250,8.63107584464010008E-002,0,-7.1316622975387647,0,4.0074024842814033,1,0.96181330847410273,0,104.02592843231956,1.6507568356079338,4.0878596406086505,0.61355851066833589,0.55163403252962673,0.37557762901745884,0.27702175758473063,248.42397953777058,7.64821497318910193E-002,98.153599636166945,179.45608461991810,214.76309956649612,268.85791594076784,93.686880599645733,83.696666666666673,15.347333333333324,2.8343671907284445,16.329065535816426,8.83312019626752293E-002
20190813080000,412.54624452985394,14.950661936666853,5.03622023625172749E-002,1,-14.405300143211528,0,2.7601057330040391,2,0.10172450444253971,2,100.87985574132922,1.6668684260860873,8.1667342296344057,1.0849456451163717,0.92464582818730146,0.32843347727584143,0.21138523722521155,54.648342426206668,0.34767751694676341,88.014998926744795,160.91948898224564,192.57952890078755,241.08671786555809,93.711130272363107,83.093000000000004,14.875666666666689,2.8514790836057999,15.816489230274328,0.34749271270365290
20190813083000,404.70487615880864,13.773907980603294,0.31040931566110846,0,-39.529082877125440,1,-26.710142336605109,2,0.73560557904525947,2,64.319396796793470,2.4102571808941851,7.3691844539805587,1.1955692756832705,1.2410717448939572,0.60232579176439061,0.52416906925691586,303.64746603620250,6.25725623468062070E-002,112.03838596097076,204.84190234713009,245.14343975765300,306.89049679778316,93.738202839626737,78.959666666666664,14.400666666666666,3.4414192929872072,15.166317706637983,0.21931249143336168
20190813090000,409.60387261202538,13.027068891250863,0.30801839217448984,0,-14.391887449448667,0,51.404762104618804,0,3.6995639928981743,0,28.543387739574911,2.7158732925137192,7.5011817973175487,1.1655684155047641,1.0591573545968287,0.56929277901638176,0.52203558664341720,823.90328705271929,2.30609590938362675E-002,116.82786689722137,213.59860102519437,255.62297158324702,320.00962709694232,93.761519004123258,74.547333333333327,14.431666666666672,4.1714688121049832,15.129046716478115,0.14449026927643979
20190813093000,404.47329998516415,11.001181632255735,0.41848025973148084,0,-22.735301091067999,0,86.949277595069361,0,4.1763933905376804,0,53.081458081440161,3.9497437719889859,9.8416129896898035,1.4376380667447752,0.88130491701727742,0.67253767808326070,0.60839703095778930,824.98992764081390,2.30305842088683842E-002,115.56631688390267,211.29208525010753,252.86266129281685,316.55404616365848,93.714489898220492,62.944333333333333,14.426333333333332,6.0710044727511603,14.907226331922743,8.08891314585682836E-002
20190813100000,406.30327416203016,11.154992837227164,0.25974260754205325,0,-19.139427620576097,0,30.060601030948437,0,1.0193162251290304,1,48.922631855450362,3.6508432027474020,7.1831899960272718,1.1824243401447183,0.88895249694371758,0.57214512209843049,0.47921534732227594,478.85299159838752,3.96781482696368717E-002,108.66120446988816,198.66733748463855,237.75406262312103,297.63987348073840,93.696749279762997,64.605999999999995,14.235333333333358,5.7275263018220040,14.745878628247965,0.23189590535897650
20190813103000,408.86844717608324,12.998468637919002,0.13720355524045508,0,-29.713332624475708,1,-33.697756326203624,2,1.0614807290422095,2,121.03447723715956,1.5622010902980734,5.4081926252258592,0.77644865097876492,1.7737772958451152,0.47182102974197881,0.34749074680112968,117.70182256470292,0.16142485805226456,98.036468834871570,179.24193215819710,214.50681376511801,268.53707652942200,93.769219145833347,81.982333333333330,12.937666666666644,2.6794597814018837,13.719211527506445,0.45587123131773333
20190813110000,408.23629402551336,13.631037018165570,1.5589632679833132,1,-52.540437760648011,2,116.36822989794300,1,7.3479310158811852,1,70.578926285033788,2.2130727633764278,28.922952904387113,1.4340517125202985,2.6447109255129684,0.88487290665211638,1.1697689765180905,2540.0679308419672,7.48011490925047390E-003,156.54177750904708,286.20829572576025,342.51823136503617,428.79218097710657,93.797031308138244,90.306666666666672,12.192666666666696,1.3727384706795851,14.290828596505321,2.3348543135881221
20190813113000,408.90934659593347,13.439928415471870,2.0397440458571436,1,-143.93321754164006,1,-52.111497987686185,2,3.9972352642309366,2,37.444144909828566,2.3431242296603840,22.636196303774007,2.0975485934972622,2.4262019658835743,0.81974264616692250,1.3372435842015280,1385.3096991266755,1.37153446712875438E-002,185.21719153645836,338.63609812209899,405.26092058588279,507.33858256325561,93.813393708658111,90.656666666666666,11.922333333333313,1.2998115095200433,14.730029103717527,2.9499642334512393
20190813123000,406.24087666443336,12.869301667569481,0.17154920133602233,0,-37.261547895970281,0,54.293332602473491,0,0.96455128682640134,0,57.183347665546108,2.6311388510879383,6.8479663422682098,1.1215965445302254,0.88284065373004184,0.53101607682907714,0.38727718304866027,129.99457591497591,0.14615994449204647,97.271652180645134,177.84360338851022,212.83337136595384,266.44212522356747,93.841181486762153,90.553333333333327,11.288000000000011,1.2601988445924917,12.496046693589960,0.18819846147650976
20190813130000,406.34985338380665,12.992334895678175,6.25229970539761398E-002,0,-16.189689126293281,0,28.950060165303611,0,0.33262258896637537,1,44.963917128507006,2.1182342846687923,4.2320097143256348,0.82034366708059359,0.70554984244087782,0.33765440368887445,0.23383245183598883,65.875506748872013,0.28842282872192609,93.325600281530143,170.62896198822440,204.19928825493645,255.63327772614730,93.876649813368061,90.433333333333337,11.457333333333338,1.2906050832957772,12.576934669494676,0.12325008318186589
20190813133000,408.81772954666576,13.536595256225240,0.14589027785183678,0,-5.8930483505377991,1,35.643654547612016,0,-1.4175597740654768,0,40.384180374202714,1.7610588988661720,4.4170988746509652,0.78561387991426157,0.76591387369427122,0.39571926039111349,0.35713121832726735,644.99650236303160,2.94575240801941418E-002,115.34729148122803,210.89163695944890,252.38342696481902,315.95410165301934,93.914459831289946,94.486666666666665,11.420999999999992,0.74199693330695482,12.428216633289253,6.77111073421663850E-002
20190813140000,406.95481601328078,13.556796574226281,0.12229876897362377,0,-7.4920719765592931,0,43.072084292676863,0,-3.7723264698096601,0,65.824784707978395,2.3358647902529359,6.1913855391478103,0.95190045254301914,0.60981397833620066,0.40211749706333733,0.32715374496850108,389.92197045553110,4.87276979489076195E-002,106.16320964676227,194.10020625337785,232.28837300089450,290.79747865603565,93.886298629340274,93.299999999999997,11.629999999999995,0.91425834969496012,12.883304314507427,0.28959004236631630
20190813143000,407.71819691469284,14.109448399187176,8.85243037155588886E-002,0,0.34771659423656326,1,48.100048602646247,0,-3.9438601535268174,0,52.803288395712954,2.6254712165810528,5.1648809388363688,0.71409585396611408,0.55167857487513305,0.38155866620430079,0.27898736379995626,-5209.8001981321595,-3.64697287370290392E-003,97.470561691698578,178.20727341365068,213.26859150342653,266.98696919058301,93.861513873697930,89.734989795276846,12.825237441168895,1.5153454076034245,13.302058197021495,9.37578093459883327E-002
20190813150000,406.53368766081576,14.564023731845150,0.29334142569705068,0,56.794188833498609,0,116.03728070698098,0,-13.851284189303160,0,46.945975711514734,2.4945543953709048,6.3541551440624868,1.1081730110218861,0.73177025707286070,0.55800227242054934,0.50894141193460629,-193.64263379754706,-9.81188885287754137E-002,116.32695445146005,212.68277331651205,254.52695972161487,318.63755030367759,93.851028121527776,85.965810986827918,13.968044593810987,2.2320218850420792,13.912455420599997,0.30717686329111760
20190813153000,407.75469178052055,14.712423258529380,0.20631063523740320,0,4.6450366303665804,0,102.22741277107730,0,-5.7237050481505793,0,39.083426411148736,1.7682409382847606,5.0996917892151679,1.0624392949855668,0.57041910062940959,0.44974260793640641,0.42666862808943040,-1395.3372960866611,-1.36167792929258544E-002,120.04836285697787,219.48669476413468,262.66951594863406,328.83106446903389,93.876602730488941,87.646487819184429,13.830201528262307,1.9472153505749157,14.077571694242579,7.95474350667386004E-002
20190813160000,408.28518097359574,14.930537324225263,7.47940377668352974E-002,0,-12.219579099010259,1,41.632682473383419,0,-1.7113125047387772,1,67.927051367800544,1.2198482271461661,3.5068175271630886,0.61344326136628269,0.58608199845901621,0.30054030299991757,0.25686422072485104,115.75734742302124,0.16413644941747668,110.43217236353480,201.90523161546477,241.62899492802001,302.49082891027729,93.901237120595241,89.128369476989135,13.802695199612572,1.7105743421328976,14.191916586003117,0.12879870508076316
20190813163000,407.93150796309385,15.397557647632413,0.13688802820954854,1,29.079769972167547,0,71.517856007580619,0,-8.9061546206691684,1,31.178457221009012,1.2125748620222756,3.1477240123757264,0.57716032650122207,0.45051958401298858,0.37505780970227315,0.34772708060210139,-120.70169737280784,-0.15741286505122831,117.86019108159634,215.48601887714366,257.88172869878468,322.83732297172554,93.918289578559026,89.700254750560376,14.181568763732912,1.6609298849828338,14.394158977932420,0.13810728800154531
20190813170000,407.62407321249555,15.531316951695866,0.11518233989729811,1,58.771992640961280,0,105.50855625349483,0,-8.4912232426379362,0,44.198262730430940,1.2382297935076669,3.1080572634248251,0.54024418362542648,0.41535052273024387,0.36946523511153917,0.31922050760638698,-46.203481386222791,-0.41122442357050448,111.39576060276255,203.66697823747958,243.73735567820609,305.13024638232224,93.909383440495631,88.096960665919028,14.592606492186974,1.9712000169416934,14.556265546242798,0.24870415707465568
20190813173000,405.08769397267582,15.319298678601681,0.18919920028536194,0,53.844392750993379,0,115.89373827163519,1,-1.9812589131607270,1,45.689693404558938,1.7261881896993541,4.2262084782410669,0.79344371271896930,0.59922275618347010,0.42424207993436086,0.40902096024403289,-106.09118147189055,-0.17909122828492730,121.60749886467808,222.33729264713594,266.08095356172845,333.10177954471442,93.917636373914931,87.464144476970333,14.492808689541334,2.0626542823528009,14.502217926025367,0.23623926938051057
20190813180000,400.88855468432018,15.149599256447596,0.14976891065015899,1,55.554954768932497,1,79.682213853921994,1,-12.881977635685338,1,51.036925071111853,1.6775007129215289,3.8571247505796511,0.71466068009608086,0.59255433226613463,0.37434561747746409,0.36397240547998516,-72.456276643711277,-0.26222710964611889,122.43101907531782,223.84295024048538,267.88284115065267,335.35752898628778,93.924366298611119,85.754794678453266,14.627002733018685,2.3643196927602843,14.532776165432438,0.26379635419660225
20190813183000,398.44381854251043,14.961632701561806,7.41830668487568762E-002,1,52.996676215982298,0,55.682502785254698,0,-10.451075496376420,0,51.523022834643086,1.8268597267907407,4.2623430523575534,0.68723988491815169,0.52097583541709303,0.33429153338880002,0.25634542645117658,-26.536282161028819,-0.71600082802493703,101.25466862527151,185.12582776722797,221.54833404122076,277.35222433790977,93.933179912593417,82.191959443463674,15.093151074384309,3.0457993865580124,14.816708352656406,0.29119874102493676
20190813190000,394.23018713911267,15.316751624393175,0.28683005294500202,1,146.95419286488001,1,157.99770919714391,1,-19.890631947735748,1,35.409324577191342,1.7029341435828242,4.9527062803553372,0.95398002908391621,0.68235722730264181,0.49723834481722323,0.50472928087273061,-73.048411418941086,-0.26010148107168002,126.72141399816805,231.68716051073386,277.27035740488236,347.10958537338058,93.924899269314238,80.455484780074755,15.790247919718524,3.4956917846126250,15.212086937798460,0.44968511411917789
20190813193000,391.53132891677240,15.213897305073500,0.25794801804905976,1,130.67270983243299,0,127.81619820150704,0,-17.672852076558968,0,30.806956113877305,1.6579553291215494,4.4335364159023198,0.82282516199672517,0.62387506345643928,0.52884267272674057,0.47900494401740690,-70.224156257788209,-0.27056216852577430,115.68197735801077,211.50354948479335,253.11572997301664,316.87085812104664,93.936392241753481,77.496703620631791,16.273384401109524,4.1510096824352765,15.561505686442104,0.40314705126390998
20190813200000,390.59770810991824,14.813219197656254,0.19630687073608841,1,109.92192981955047,0,144.88910380281058,0,-14.405733525137208,0,29.112518227481331,1.8325397480965866,5.2018977910488484,0.80586583727562122,0.73093986927289178,0.46502746784048837,0.41788498094380627,-55.428996942828554,-0.34278087369319127,114.95223641161859,210.16935029585071,251.51903430307991,314.87198461308662,93.945209433076144,75.024494153268776,16.364809082478871,4.6339547078513714,15.565991842686515,0.37130700959681062
20190813203000,390.28252826938285,14.351227597537218,0.38476786310909200,0,139.93143962399330,0,217.22573563137453,0,-21.613855533614991,0,34.193088444798207,2.3385938275125771,6.1978101859269268,1.1280235980753193,0.80422959666780014,0.59990018786946964,0.58542815879058074,-119.69245062959959,-0.15874017032868201,122.79214553208611,224.50320457883390,268.67299696234483,336.34671029922686,93.927526985677090,70.949914465317647,16.741659628974105,5.5206975933253419,15.780967115614203,0.39797718403638849
20190813210000,391.37632960026258,12.894321577128034,0.26188482135037239,1,137.87716757032666,0,144.21449904152121,0,-18.038665836928647,0,49.393351391683694,2.8298775537382150,6.0865564102611360,1.1186701595119581,0.90847373110203999,0.57218967799169307,0.48311677186407292,-68.252602952171159,-0.27837766148368703,109.36152969456731,199.94775535262650,239.28639578781608,299.55817276966849,93.927402247829860,62.449794082522295,17.065839825100397,7.2843130174165642,15.954307735866905,0.42846689873050775
20190813213000,389.15007254265146,13.260005090289757,0.31943973190116753,0,48.713313493136127,0,120.36543588645999,0,-12.069336083673956,0,22.868479839523957,2.0215525871245892,5.7099516107333628,1.0148940880077562,0.68914608500922947,0.52302881788454736,0.53333245031904741,-259.93471164778589,-7.30952779625107935E-002,127.18409741157325,232.53309335574468,278.28272296609703,348.37694692435366,93.938909168128305,65.309478260368749,16.802692881608209,6.6182062917743769,16.332704875296258,0.20722204553715651
20190813220000,386.79662183214162,14.291300459068136,0.25475646760003678,0,30.709940488207771,0,125.90220156391064,1,-8.9666159491453268,0,32.665529335329921,1.7309461814140352,5.6946053856560184,0.95209877972681434,0.60599793406274616,0.46172292358376105,0.47598648802080701,-293.17872446920205,-6.48068854054787286E-002,128.29964356332104,234.57266750633661,280.72357230984903,351.43260066101135,93.949982351000273,72.402476345383292,16.360977876646814,5.1191944447419155,16.324802056323449,0.15648943716734753
20190813223000,385.96558593173955,14.634023545090757,0.19583960109057943,0,24.895832988411549,0,77.453813534388161,1,-7.7717950813522503,0,30.766267395310962,2.0386438071480746,5.0261822448093163,0.89495256053355199,0.66325325742907770,0.46139124675317200,0.41724500675475962,-243.59802173016456,-7.79973493423786884E-002,115.53467245126002,211.23422913476261,252.79342229940704,316.46736716010730,93.942479893663204,74.999211768830151,16.178697863260936,4.5839434533575902,16.263120364718986,0.12554413294897235
20190813230000,385.07412559481196,14.818334204322852,0.21482670972319529,0,23.551058423676487,0,70.934944005409974,0,-10.822466026764063,0,49.057959083479290,2.2892572529442030,5.6545205209032323,0.97597110520264563,0.71719389642219555,0.48952061898508697,0.43728795848535756,-296.36295795868767,-6.41105762031453225E-002,114.40687499357368,209.17225568956138,250.32576672086739,313.37815519843900,93.908797784505211,74.704973620247983,16.431167996724469,4.7131120556967181,16.500351993984623,0.15135059420036975